Theta_e
327 327 331 329 330 330 329 326 329 329 330 330 330 329 328 329 330 329 330 329 328 328 327 326 326 326 326 327 327 328 328 328 328 329 329 328 329 329 329 328 329 328 327
327 326 330 330 331 329 330 328 326 327 328 329 330 330 329 330 330 329 329 327 327 327 327 326 325 326 327 328 328 328 328 328 328 328 329 329 330 329 327 329 329 327 319
327 325 328 330 330 331 331 330 328 328 327 329 330 330 330 331 330 330 330 328 327 327 326 326 326 327 327 326 327 327 326 328 328 328 329 329 329 330 329 328 325 326 320
326 325 326 329 330 329 331 329 328 329 329 328 328 329 330 330 330 330 329 329 327 327 327 327 326 327 326 326 325 326 325 325 327 327 328 327 328 329 327 324 322 320 320
325 325 325 327 329 329 331 331 330 330 328 329 330 329 330 330 329 329 328 328 327 327 327 327 327 327 326 326 326 326 326 327 326 325 324 321 321 321 322 321 321 321 322
325 325 324 326 328 330 329 330 331 328 324 327 329 328 329 328 329 328 329 328 328 327 327 327 327 327 327 326 327 329 327 327 325 323 322 321 319 321 322 318 318 325 324
324 324 324 324 325 330 328 327 328 326 324 323 324 329 330 328 328 328 329 329 328 327 327 327 328 327 327 328 329 325 325 322 321 320 320 321 323 323 324 325 325 324 324
322 323 324 323 325 329 329 328 328 328 324 322 323 324 326 329 330 330 329 329 329 328 328 327 327 327 328 326 324 323 324 326 328 326 323 324 324 323 323 323 324 323 325
321 321 322 322 324 326 328 328 327 329 325 323 320 322 324 325 327 327 326 328 330 330 330 329 329 328 323 324 323 323 322 323 323 323 322 324 326 326 325 326 327 325 319
321 321 320 321 323 323 327 327 327 326 328 324 322 320 324 326 327 326 326 326 327 326 324 323 325 321 320 321 321 320 320 320 317 316 312 312 313 314 314 313 311 311 311
321 322 319 319 322 323 326 326 326 327 325 328 326 324 318 322 324 325 327 326 326 325 323 326 326 323 321 319 322 322 321 320 316 316 315 316 315 315 315 314 311 312 312
322 323 320 318 321 322 325 328 327 329 328 328 328 326 324 320 315 318 319 325 324 324 323 323 323 320 318 318 319 320 319 318 315 313 315 317 316 314 314 313 313 312 310
323 323 321 318 320 322 325 326 328 327 330 327 327 326 325 323 315 312 315 320 320 317 317 316 316 311 309 317 318 318 314 310 311 316 316 314 314 314 312 311 310 309 309
324 323 322 319 321 322 325 327 328 327 327 327 327 324 324 322 319 311 311 313 315 316 312 310 307 305 304 306 306 307 308 310 315 317 314 310 310 311 311 309 308 305 306
325 325 322 319 320 324 324 327 327 326 325 327 323 323 323 323 320 307 311 312 317 318 313 310 304 304 303 305 310 314 312 313 316 313 312 310 309 308 305 304 305 305 303
325 325 322 321 323 323 324 326 326 325 325 324 324 322 322 321 320 312 309 312 318 318 316 314 313 311 310 312 314 315 315 317 315 314 311 308 305 304 305 304 303 302 301
326 326 324 322 324 324 324 325 324 324 323 321 321 321 320 321 320 318 306 311 313 319 319 318 317 316 318 317 318 318 314 315 313 310 308 304 304 305 302 302 301 302 301
326 326 325 324 322 324 323 324 324 321 320 321 319 319 318 321 321 320 315 306 311 313 314 315 321 322 322 321 317 315 312 309 309 307 304 305 304 302 302 302 301 300 299
327 326 325 325 323 322 323 323 324 321 319 319 318 317 317 318 320 320 319 309 310 314 314 314 319 324 322 319 317 315 312 308 306 304 305 303 302 301 302 301 300 299 299
327 327 326 324 326 323 322 322 321 322 320 318 318 317 316 317 316 317 315 314 314 314 315 317 322 322 321 317 314 310 308 303 304 304 302 302 302 302 301 300 299 299 298
329 327 327 326 323 325 324 322 321 320 320 319 319 318 317 317 317 316 315 315 315 315 316 317 320 319 315 313 311 308 304 304 303 302 301 301 302 302 301 300 299 298 298
331 328 326 326 326 323 324 323 323 321 319 320 319 320 319 317 317 316 315 315 318 319 322 321 319 317 315 313 309 303 303 303 302 301 301 301 301 301 301 299 299 298 297
331 330 328 325 325 326 325 324 324 323 321 319 320 319 319 316 316 315 315 314 315 318 321 321 317 313 312 308 304 302 302 301 300 301 302 301 300 299 299 299 298 297 296
331 332 329 327 325 326 324 324 324 324 323 323 321 319 318 316 316 316 316 316 316 318 317 315 313 312 307 304 303 302 300 299 301 301 300 300 299 299 299 297 296 295 295
329 331 331 329 327 327 327 326 325 326 324 324 322 319 316 315 316 316 318 317 315 313 311 310 309 305 304 302 300 298 299 300 300 300 299 299 299 298 297 295 294 293 292
330 329 331 331 329 328 328 328 328 326 326 324 322 318 316 318 318 317 315 313 311 309 308 307 304 302 300 299 297 299 298 297 298 298 298 298 297 296 294 293 292 291 290
Wind_Speed
11 10 12 7 5 4 8 8 11 15 16 16 16 19 21 19 23 26 29 27 27 26 22 21 22 26 29 30 27 23 23 19 14 9 20 26 22 21 19 15 13 12 14
13 11 10 9 8 8 10 9 13 13 13 15 16 17 20 22 23 25 31 29 30 26 22 24 23 29 30 26 25 24 20 23 20 13 16 15 16 23 20 17 18 15 11
18 14 10 10 9 8 10 9 10 12 14 16 15 19 20 18 19 21 28 29 25 24 24 27 28 31 29 25 24 22 17 15 15 19 12 14 16 17 15 17 13 17 15
22 17 11 11 8 7 12 10 12 13 16 14 12 14 18 17 16 17 19 22 24 22 23 25 30 27 26 23 20 19 14 10 18 23 23 20 19 19 21 20 16 16 14
25 20 14 12 10 8 12 11 9 11 15 10 16 14 13 12 15 17 19 20 21 22 20 24 29 29 27 23 16 13 11 25 27 24 19 20 18 20 23 21 17 15 16
26 23 18 14 11 7 11 11 12 14 18 25 20 17 18 16 16 16 19 18 18 18 21 25 28 29 20 16 12 6 16 29 25 21 18 22 20 20 17 17 17 16 7
27 24 21 16 13 11 13 12 16 16 16 17 22 22 21 20 19 19 20 20 18 20 23 31 32 26 19 13 8 4 14 23 19 20 22 23 20 20 18 19 18 18 18
27 27 23 19 17 14 12 12 14 19 16 15 19 21 23 20 18 20 20 22 22 21 26 35 29 21 15 10 12 12 15 15 14 12 20 15 16 16 15 16 14 19 11
24 29 27 22 21 18 16 16 15 17 19 17 16 18 21 19 20 22 19 19 20 20 22 23 20 19 14 13 13 13 9 8 7 7 7 5 4 4 5 7 6 5 3
26 30 30 26 25 22 19 19 17 14 15 17 16 16 18 20 18 20 19 22 20 20 19 22 20 19 18 15 13 13 11 8 6 6 5 3 1 2 1 2 4 3 3
28 28 32 30 29 25 22 23 19 15 15 16 17 15 15 17 17 17 18 20 19 20 22 19 17 16 15 12 14 15 13 13 11 7 5 3 1 2 1 5 6 6 5
28 28 34 32 31 29 26 25 22 19 18 14 18 18 14 14 17 17 14 21 19 20 20 20 19 18 19 15 16 14 13 11 8 7 4 12 18 17 15 11 8 7 8
29 29 35 34 33 32 30 28 25 23 17 18 22 20 19 14 16 19 16 18 19 18 18 21 19 18 19 16 11 10 7 7 8 10 21 18 17 17 16 13 11 10 15
30 29 36 37 33 34 32 31 30 27 22 22 21 22 22 21 18 22 21 17 18 16 19 18 18 17 16 15 12 9 7 9 9 20 19 16 14 13 10 8 10 13 12
31 29 35 36 35 36 35 34 32 30 29 24 25 23 23 26 25 28 29 23 18 20 23 22 21 19 17 14 12 11 13 14 22 21 18 15 12 11 14 15 14 14 14
30 30 32 30 33 32 32 26 28 26 25 27 23 24 25 25 22 26 31 27 24 24 24 25 24 24 24 24 22 20 21 21 20 17 15 15 15 15 12 12 13 12 13
27 29 31 32 29 28 28 28 26 27 24 28 28 24 27 26 28 26 32 32 29 24 23 23 22 23 21 20 24 26 27 21 18 17 17 17 20 13 17 12 11 12 13
33 33 32 30 30 28 29 29 29 27 25 31 31 28 17 24 31 28 31 35 31 32 30 26 22 18 22 29 31 30 26 22 19 17 20 18 17 17 13 11 11 11 10
36 34 31 28 33 31 31 30 29 28 30 29 31 27 26 19 32 34 34 38 37 35 32 25 17 21 29 33 31 28 26 24 21 22 19 16 16 15 14 13 9 8 7
37 35 34 34 30 32 30 29 28 27 28 29 33 33 27 22 23 37 39 36 36 37 33 23 21 29 33 34 31 30 28 26 24 21 19 18 16 14 12 9 8 6 5
31 36 38 29 32 31 31 27 29 30 27 28 32 38 36 31 28 37 42 37 32 30 29 29 30 33 35 34 33 32 31 29 24 22 18 18 16 15 11 8 6 3 0
31 31 37 33 28 30 28 30 29 30 30 27 28 37 40 39 39 41 43 41 33 25 26 35 37 37 37 37 37 37 34 32 27 22 21 16 14 12 12 5 5 3 3
31 31 35 32 32 28 31 29 31 31 30 32 33 33 42 39 37 39 39 38 36 30 34 37 38 35 34 36 37 35 35 30 25 24 21 18 14 12 9 7 5 2 5
27 29 32 31 31 30 32 27 28 29 33 36 37 39 44 43 37 34 34 38 40 39 40 39 37 36 39 38 35 32 31 30 27 22 18 17 12 10 7 9 6 5 6
9 29 27 31 29 33 30 34 36 27 28 27 35 39 36 33 32 34 37 37 40 41 39 39 38 39 39 38 35 32 28 26 23 21 19 15 11 11 12 7 6 5 7
12 10 19 23 32 31 32 32 28 30 27 27 30 30 30 34 37 41 42 45 45 44 43 41 43 40 38 36 33 30 26 23 21 19 16 14 14 11 7 7 5 4 7
Wind_Direction
137 134 136 112 121 85 96 91 117 122 104 100 116 122 128 141 149 149 150 149 136 135 138 142 146 151 148 147 153 151 146 145 125 124 157 178 182 189 193 203 208 221 223
156 144 136 127 111 103 114 102 115 115 116 115 112 125 135 138 149 151 153 142 136 130 133 132 139 147 147 146 139 133 139 146 135 130 159 166 191 195 206 217 208 216 231
159 147 141 133 120 119 114 116 105 115 117 126 116 126 136 139 140 145 147 150 145 137 136 139 147 144 135 131 142 143 124 141 158 150 156 167 159 171 187 189 215 224 232
157 149 148 146 142 130 123 121 115 117 107 107 118 126 137 148 147 135 142 142 145 142 138 142 153 151 140 149 152 157 165 180 178 168 160 164 174 186 189 195 207 219 236
159 152 154 157 153 148 137 135 131 106 101 133 105 123 131 130 150 146 145 149 153 150 149 150 147 148 149 156 177 201 213 172 170 166 166 164 176 182 195 206 220 233 243
161 156 157 164 176 175 152 141 143 119 105 108 123 126 139 131 136 133 150 156 159 158 156 158 161 170 178 189 198 230 178 169 170 169 169 176 192 200 205 210 226 239 266
165 161 162 174 180 157 142 134 135 130 129 111 118 119 132 140 149 136 138 151 148 154 157 159 162 172 182 200 220 191 173 180 174 174 178 192 194 208 211 220 231 245 254
165 167 168 179 175 167 162 149 139 135 132 117 129 124 120 127 131 158 168 156 157 155 158 165 168 180 197 202 170 149 130 138 136 162 193 200 215 220 224 235 253 256 251
172 171 173 179 173 178 180 160 149 135 140 132 140 138 137 131 132 136 139 146 151 157 156 164 177 176 177 177 170 169 155 135 130 133 137 144 159 186 206 221 233 286 332
185 178 178 179 183 180 184 173 170 158 146 149 145 152 151 143 142 143 142 144 142 154 163 159 168 171 166 165 164 164 157 156 176 160 151 153 120 91 66 350 338 316 344
187 183 181 181 181 183 180 174 176 176 178 167 164 161 167 169 163 156 159 160 156 152 158 162 167 179 174 167 169 172 171 159 146 120 98 93 230 244 219 84 93 70 69
188 186 181 182 179 181 179 175 177 183 190 196 175 174 175 178 188 180 170 180 176 176 179 178 178 180 181 170 171 166 155 152 141 125 126 116 112 102 103 117 118 103 81
193 187 180 181 180 181 181 181 182 191 202 196 179 169 181 188 192 193 187 185 188 191 191 185 178 173 177 175 175 179 182 173 149 128 118 113 110 120 128 116 104 82 73
195 187 177 176 177 183 185 185 188 194 200 198 186 185 185 189 196 193 191 189 190 201 183 174 175 177 180 190 195 201 198 179 163 141 132 126 122 119 111 90 75 75 80
195 180 171 174 180 180 186 188 194 201 205 205 203 200 196 193 199 193 189 185 177 180 173 171 172 181 186 189 190 189 167 164 151 147 139 129 108 94 90 86 73 77 76
186 168 170 171 176 177 182 186 201 205 212 213 214 213 214 221 210 200 195 191 177 172 172 171 178 189 192 193 191 183 161 153 151 144 130 119 106 107 91 85 96 82 67
187 171 172 173 172 174 178 183 193 207 215 213 219 221 222 218 213 203 199 198 192 186 195 197 199 203 199 188 172 167 153 156 154 144 135 122 119 110 119 108 91 79 77
196 182 174 176 178 178 183 187 192 197 205 209 217 222 224 222 212 206 198 196 194 203 212 210 208 214 207 182 169 162 158 154 149 141 135 131 125 127 119 105 106 102 73
195 190 181 178 183 185 187 192 197 195 204 209 214 217 221 216 210 208 199 195 197 203 211 213 213 194 184 179 169 167 164 157 149 141 136 136 139 132 120 124 105 83 77
193 195 189 188 183 188 190 190 196 196 196 202 212 216 207 205 203 199 194 199 202 206 204 201 195 186 181 175 167 161 155 148 143 146 150 149 141 136 134 122 100 86 118
192 194 194 188 191 191 195 196 196 202 199 199 204 216 215 206 203 200 198 201 205 206 206 201 189 183 175 171 163 158 154 153 156 157 155 145 141 143 132 121 117 79 335
189 189 193 194 192 199 198 199 201 200 206 200 198 210 215 207 204 202 200 200 196 202 201 196 187 185 181 174 166 161 161 160 160 158 149 152 153 149 153 127 132 127 29
190 184 191 195 200 202 206 209 205 204 202 204 204 203 203 202 203 202 202 202 201 203 198 190 188 181 176 171 168 169 166 160 154 151 158 161 153 161 163 159 135 77 4
194 190 189 194 198 202 212 219 219 217 210 206 203 203 203 202 202 201 197 199 202 191 186 186 183 176 167 167 169 168 160 151 151 156 161 158 151 153 177 147 106 64 57
191 205 195 192 196 200 208 212 220 225 229 224 210 204 200 191 194 188 185 180 169 168 169 170 167 166 166 165 158 152 151 153 157 161 159 157 163 165 147 126 107 86 47
222 212 209 197 200 201 204 210 213 216 214 210 205 199 182 183 177 170 165 165 164 164 162 163 164 161 157 156 156 155 155 164 169 166 165 161 161 148 133 124 112 68 52